| time (UTC) | temp C | wind direction | speed KPH | gust KPH | rain 1hr cm | rain 24hr cm | rain mn cm | humidity % | barometer mb |
| 20260507074600 | 3 | 0 | 0.0 | 0.0 | 0.00 | 1.27 | 0.00 | 81 | 1011.1 |
| 20260507073100 | 3 | 0 | 0.0 | 0.0 | 0.00 | 1.27 | 0.00 | 81 | 1011.2 |
| 20260507071600 | 3 | 0 | 0.0 | 1.6 | 0.00 | 1.27 | 0.00 | 81 | 1011.2 |
| 20260507070107 | 3 | 0 | 0.0 | 0.0 | 0.00 | 1.27 | 0.00 | 81 | 1011.2 |
| 20260507064600 | 3 | 0 | 0.0 | 0.0 | 0.00 | 1.55 | 0.00 | 81 | 1011.0 |
| 20260507063059 | 3 | 0 | 0.0 | 0.0 | 0.00 | 1.55 | 0.00 | 81 | 1011.0 |
| 20260507061558 | 4 | 0 | 0.0 | 1.6 | 0.00 | 1.55 | 0.00 | 81 | 1011.0 |
| 20260507060110 | 4 | 0 | 0.0 | 1.6 | 0.00 | 1.55 | 0.00 | 81 | 1011.5 |
| 20260507054600 | 4 | 0 | 0.0 | 3.2 | 0.00 | 1.68 | 0.00 | 81 | 1011.6 |
| 20260507053057 | 4 | 0 | 0.0 | 4.8 | 0.00 | 1.68 | 0.00 | 81 | 1011.7 |
| 20260507051557 | 4 | 0 | 0.0 | 6.4 | 0.00 | 1.68 | 0.00 | 81 | 1011.7 |
| 20260507050100 | 4 | 288 | 0.0 | 9.7 | 0.00 | 1.68 | 0.00 | 81 | 1011.8 |
| 20260507044601 | 4 | 0 | 3.2 | 11.3 | 0.00 | 2.06 | 0.00 | 81 | 1011.8 |
| 20260507043101 | 5 | 255 | 0.0 | 9.7 | 0.00 | 2.06 | 0.00 | 81 | 1011.8 |
| 20260507041558 | 5 | 0 | 1.6 | 4.8 | 0.00 | 2.06 | 0.00 | 81 | 1011.7 |
| 20260507040103 | 5 | 253 | 1.6 | 9.7 | 0.00 | 2.06 | 0.00 | 82 | 1011.6 |
| 20260507034602 | 5 | 0 | 0.0 | 9.7 | 0.00 | 2.39 | 2.06 | 82 | 1011.5 |
| 20260507033059 | 5 | 257 | 1.6 | 8.0 | 0.00 | 2.39 | 2.06 | 82 | 1011.5 |
| 20260507031559 | 5 | 317 | 0.0 | 6.4 | 0.00 | 2.39 | 2.06 | 81 | 1011.3 |
| 20260507030059 | 5 | 0 | 1.6 | 6.4 | 0.00 | 2.39 | 2.06 | 81 | 1011.4 |
| 20260507024601 | 5 | 0 | 0.0 | 6.4 | 0.00 | 2.62 | 2.06 | 81 | 1011.3 |
| 20260507023057 | 5 | 267 | 1.6 | 8.0 | 0.00 | 2.62 | 2.06 | 81 | 1011.4 |
| 20260507021600 | 5 | 272 | 1.6 | 12.9 | 0.00 | 2.62 | 2.06 | 81 | 1011.5 |
| 20260507020057 | 5 | 0 | 1.6 | 11.3 | 0.00 | 2.62 | 2.06 | 81 | 1011.5 |
| 20260507014559 | 5 | 0 | 1.6 | 12.9 | 0.00 | 2.82 | 2.06 | 81 | 1011.5 |
| 20260507013057 | 6 | 219 | 4.8 | 14.5 | 0.00 | 2.82 | 2.06 | 81 | 1011.2 |
| 20260507011558 | 6 | 234 | 3.2 | 16.1 | 0.00 | 2.82 | 2.06 | 80 | 1011.3 |
| 20260507010114 | 6 | 264 | 1.6 | 12.9 | 0.00 | 2.82 | 2.06 | 80 | 1011.1 |
| 20260507004557 | 6 | 257 | 4.8 | 14.5 | 0.00 | 3.20 | 2.06 | 80 | 1010.9 |
| 20260507003058 | 7 | 191 | 6.4 | 19.3 | 0.00 | 3.20 | 2.06 | 80 | 1010.4 |
| 20260507001601 | 7 | 279 | 6.4 | 20.9 | 0.00 | 3.20 | 2.06 | 80 | 1010.3 |
| 20260507000104 | 8 | 273 | 3.2 | 9.7 | 0.00 | 3.20 | 2.06 | 80 | 1010.0 |
| 20260506234612 | 8 | 246 | 1.6 | 8.0 | 0.00 | 3.38 | 2.06 | 80 | 1009.7 |
| 20260506233103 | 8 | 221 | 0.0 | 4.8 | 0.00 | 3.38 | 2.06 | 80 | 1009.5 |
| 20260506231558 | 8 | 229 | 0.0 | 6.4 | 0.00 | 3.38 | 2.06 | 80 | 1009.4 |
| 20260506230056 | 8 | 200 | 1.6 | 6.4 | 0.00 | 3.38 | 2.06 | 80 | 1009.4 |
| 20260506224600 | 8 | 203 | 3.2 | 8.0 | 0.00 | 3.38 | 2.06 | 80 | 1009.2 |
| 20260506223102 | 8 | 0 | 1.6 | 6.4 | 0.00 | 3.38 | 2.06 | 80 | 1009.1 |
| 20260506221615 | 8 | 258 | 1.6 | 8.0 | 0.00 | 3.38 | 2.06 | 80 | 1009.1 |
| 20260506220057 | 8 | 183 | 0.0 | 6.4 | 0.00 | 3.38 | 2.06 | 80 | 1008.9 |
| 20260506214606 | 7 | 185 | 0.0 | 6.4 | 0.00 | 3.38 | 2.06 | 80 | 1009.1 |
| 20260506213059 | 7 | 257 | 0.0 | 8.0 | 0.00 | 3.38 | 2.06 | 80 | 1009.1 |
| 20260506211600 | 7 | 261 | 1.6 | 6.4 | 0.00 | 3.38 | 2.06 | 80 | 1009.0 |
| 20260506210100 | 7 | 206 | 3.2 | 9.7 | 0.00 | 3.38 | 2.06 | 80 | 1009.2 |
| 20260506204608 | 7 | 200 | 1.6 | 6.4 | 0.00 | 3.38 | 2.06 | 80 | 1008.9 |
| 20260506203055 | 7 | 0 | 0.0 | 8.0 | 0.00 | 3.38 | 2.06 | 81 | 1009.0 |
| 20260506201600 | 7 | 0 | 0.0 | 9.7 | 0.00 | 3.38 | 2.06 | 81 | 1009.1 |
| 20260506200107 | 7 | 0 | 1.6 | 6.4 | 0.00 | 3.38 | 2.06 | 81 | 1009.0 |
| 20260506194600 | 7 | 291 | 1.6 | 8.0 | 0.00 | 3.38 | 2.06 | 82 | 1008.9 |
| 20260506193103 | 7 | 360 | 3.2 | 8.0 | 0.00 | 3.38 | 2.06 | 82 | 1008.7 |
| 20260506191600 | 6 | 322 | 0.0 | 6.4 | 0.00 | 3.38 | 2.06 | 82 | 1008.9 |
| 20260506190101 | 6 | 315 | 1.6 | 11.3 | 0.00 | 3.38 | 2.06 | 82 | 1008.9 |
| 20260506184558 | 6 | 0 | 0.0 | 12.9 | 0.00 | 3.38 | 2.06 | 82 | 1008.9 |
| 20260506183108 | 6 | 323 | 3.2 | 12.9 | 0.00 | 3.38 | 2.06 | 82 | 1008.7 |
| 20260506181557 | 6 | 323 | 4.8 | 11.3 | 0.00 | 3.38 | 2.06 | 82 | 1008.6 |
| 20260506180058 | 6 | 338 | 0.0 | 12.9 | 0.00 | 3.38 | 2.06 | 83 | 1008.7 |
| 20260506174606 | 6 | 0 | 1.6 | 6.4 | 0.00 | 3.38 | 2.06 | 83 | 1008.7 |
| 20260506173127 | 6 | 0 | 3.2 | 8.0 | 0.00 | 3.38 | 2.06 | 83 | 1008.4 |
| 20260506171600 | 6 | 0 | 0.0 | 9.7 | 0.00 | 3.38 | 2.06 | 83 | 1008.1 |
| 20260506170057 | 7 | 311 | 3.2 | 6.4 | 0.00 | 3.38 | 2.06 | 83 | 1008.1 |
| 20260506164559 | 7 | 0 | 1.6 | 6.4 | 0.00 | 3.38 | 2.06 | 84 | 1008.0 |
| 20260506163100 | 6 | 321 | 1.6 | 6.4 | 0.00 | 3.38 | 2.06 | 83 | 1008.1 |
| 20260506161609 | 6 | 331 | 1.6 | 8.0 | 0.00 | 3.38 | 2.06 | 84 | 1008.0 |
| 20260506160107 | 6 | 360 | 1.6 | 3.2 | 0.05 | 3.38 | 2.06 | 84 | 1008.0 |
| 20260506154601 | 6 | 31 | 1.6 | 4.8 | 0.05 | 3.38 | 2.06 | 84 | 1008.0 |
| 20260506153056 | 6 | 0 | 0.0 | 8.0 | 0.08 | 3.38 | 2.06 | 84 | 1008.0 |
| 20260506151558 | 6 | 44 | 1.6 | 6.4 | 0.08 | 3.38 | 2.06 | 84 | 1008.0 |
| 20260506144611 | 6 | 34 | 1.6 | 9.7 | 0.03 | 3.33 | 2.01 | 84 | 1007.8 |
| 20260506143058 | 6 | 53 | 3.2 | 8.0 | 0.03 | 3.30 | 1.98 | 84 | 1007.5 |
| 20260506141557 | 6 | 64 | 1.6 | 8.0 | 0.03 | 3.30 | 1.98 | 84 | 1007.4 |
| 20260506140122 | 5 | 58 | 3.2 | 11.3 | 0.03 | 3.30 | 1.98 | 83 | 1007.4 |
| 20260506134557 | 5 | 63 | 4.8 | 14.5 | 0.05 | 3.30 | 1.98 | 83 | 1007.4 |
| 20260506133130 | 5 | 90 | 4.8 | 14.5 | 0.03 | 3.28 | 1.96 | 83 | 1007.5 |
| 20260506131558 | 5 | 58 | 8.0 | 16.1 | 0.05 | 3.28 | 1.96 | 83 | 1007.3 |
| 20260506130139 | 5 | 68 | 4.8 | 14.5 | 0.08 | 3.28 | 1.96 | 83 | 1007.3 |
| 20260506124556 | 5 | 63 | 1.6 | 8.0 | 0.08 | 3.25 | 1.93 | 84 | 1007.5 |
| 20260506123055 | 5 | 38 | 3.2 | 11.3 | 0.10 | 3.25 | 1.93 | 83 | 1007.6 |
| 20260506121600 | 5 | 58 | 0.0 | 8.0 | 0.10 | 3.23 | 1.91 | 83 | 1007.7 |
| 20260506120104 | 5 | 76 | 4.8 | 11.3 | 0.08 | 3.20 | 1.88 | 83 | 1007.5 |
| 20260506114559 | 5 | 41 | 6.4 | 17.7 | 0.10 | 3.17 | 1.85 | 83 | 1007.3 |
| 20260506113057 | 5 | 59 | 6.4 | 17.7 | 0.10 | 3.15 | 1.83 | 83 | 1007.0 |
| 20260506111558 | 5 | 74 | 6.4 | 16.1 | 0.15 | 3.12 | 1.80 | 83 | 1007.0 |
| 20260506110058 | 5 | 43 | 4.8 | 12.9 | 0.23 | 3.12 | 1.80 | 83 | 1007.3 |
| 20260506104605 | 5 | 17 | 3.2 | 14.5 | 0.23 | 3.07 | 1.75 | 83 | 1007.2 |
| 20260506103107 | 5 | 36 | 3.2 | 14.5 | 0.28 | 3.05 | 1.73 | 83 | 1007.3 |
| 20260506101600 | 6 | 66 | 4.8 | 11.3 | 0.28 | 2.95 | 1.65 | 83 | 1007.7 |
| 20260506100108 | 6 | 5 | 4.8 | 16.1 | 0.23 | 2.90 | 1.57 | 83 | 1007.1 |
| 20260506094605 | 6 | 69 | 6.4 | 12.9 | 0.20 | 2.84 | 1.52 | 83 | 1007.0 |
| 20260506093103 | 6 | 42 | 4.8 | 14.5 | 0.18 | 2.77 | 1.45 | 83 | 1006.9 |
| 20260506091608 | 6 | 23 | 3.2 | 14.5 | 0.13 | 2.67 | 1.37 | 83 | 1006.7 |
| 20260506090058 | 6 | 35 | 3.2 | 20.9 | 0.15 | 2.64 | 1.32 | 83 | 1006.8 |
| 20260506084601 | 6 | 355 | 4.8 | 16.1 | 0.20 | 2.64 | 1.32 | 83 | 1007.2 |
| 20260506083101 | 6 | 74 | 6.4 | 17.7 | 0.23 | 2.59 | 1.27 | 83 | 1006.8 |
| 20260506081614 | 6 | 42 | 6.4 | 16.1 | 0.33 | 2.57 | 1.24 | 82 | 1007.2 |